Time,TemperatureF,DewpointF,PressureIn,WindDirection,WindDirectionDegrees,WindSpeedMPH,WindSpeedGustMPH,Humidity,HourlyPrecipIn,Conditions,Clouds,dailyrainin,SoftwareType,DateUTC
2013-06-11 00:03:00,58.0,-99.9,-100.00,North,-999,-999.0,-999.0,-999,0.02,,,0.09,,2013-06-11 04:03:00,
2013-06-11 00:13:00,58.0,-99.9,-100.00,North,-999,-999.0,-999.0,-999,0.02,,,0.09,,2013-06-11 04:13:00,
2013-06-11 00:23:00,58.0,-99.9,-100.00,North,-999,-999.0,-999.0,-999,0.02,,,0.09,,2013-06-11 04:23:00,
2013-06-11 00:30:00,57.0,-99.9,-100.00,North,-999,-999.0,-999.0,-999,0.04,,,0.13,,2013-06-11 04:30:00,
2013-06-11 01:02:00,57.0,-99.9,-100.00,North,-999,-999.0,-999.0,-999,0.04,,,0.13,,2013-06-11 05:02:00,
2013-06-11 01:12:00,57.0,-99.9,-100.00,North,-999,-999.0,-999.0,-999,0.04,,,0.13,,2013-06-11 05:12:00,
2013-06-11 01:22:00,57.0,-99.9,-100.00,North,-999,-999.0,-999.0,-999,0.04,,,0.13,,2013-06-11 05:22:00,
2013-06-11 01:30:00,57.0,-99.9,-100.00,North,-999,-999.0,-999.0,-999,0.02,,,0.15,,2013-06-11 05:30:00,
2013-06-11 02:02:00,57.0,-99.9,-100.00,North,-999,-999.0,-999.0,-999,0.02,,,0.15,,2013-06-11 06:02:00,
2013-06-11 02:12:00,57.0,-99.9,-100.00,North,-999,-999.0,-999.0,-999,0.02,,,0.15,,2013-06-11 06:12:00,
2013-06-11 02:22:00,57.0,-99.9,-100.00,North,-999,-999.0,-999.0,-999,0.02,,,0.15,,2013-06-11 06:22:00,
2013-06-11 02:30:00,57.0,-99.9,-100.00,North,-999,-999.0,-999.0,-999,0.02,,,0.17,,2013-06-11 06:30:00,
2013-06-11 03:02:00,57.0,-99.9,-100.00,North,-999,-999.0,-999.0,-999,0.02,,,0.17,,2013-06-11 07:02:00,
2013-06-11 03:13:00,57.0,-99.9,-100.00,North,-999,-999.0,-999.0,-999,0.02,,,0.17,,2013-06-11 07:13:00,
2013-06-11 03:22:00,57.0,-99.9,-100.00,North,-999,-999.0,-999.0,-999,0.02,,,0.17,,2013-06-11 07:22:00,
2013-06-11 03:30:00,55.0,-99.9,-100.00,North,-999,-999.0,-999.0,-999,0.01,,,0.18,,2013-06-11 07:30:00,
2013-06-11 04:03:00,55.0,-99.9,-100.00,North,-999,-999.0,-999.0,-999,0.01,,,0.18,,2013-06-11 08:03:00,
2013-06-11 04:12:00,55.0,-99.9,-100.00,North,-999,-999.0,-999.0,-999,0.01,,,0.18,,2013-06-11 08:12:00,
2013-06-11 04:22:00,55.0,-99.9,-100.00,North,-999,-999.0,-999.0,-999,0.01,,,0.18,,2013-06-11 08:22:00,
2013-06-11 04:30:00,54.0,-99.9,-100.00,North,-999,-999.0,-999.0,-999,0.05,,,0.23,,2013-06-11 08:30:00,
2013-06-11 05:02:00,54.0,-99.9,-100.00,North,-999,-999.0,-999.0,-999,0.05,,,0.23,,2013-06-11 09:02:00,
2013-06-11 05:12:00,54.0,-99.9,-100.00,North,-999,-999.0,-999.0,-999,0.05,,,0.23,,2013-06-11 09:12:00,
2013-06-11 05:22:00,54.0,-99.9,-100.00,North,-999,-999.0,-999.0,-999,0.05,,,0.23,,2013-06-11 09:22:00,
2013-06-11 05:30:00,55.0,-99.9,-100.00,North,-999,-999.0,-999.0,-999,0.05,,,0.28,,2013-06-11 09:30:00,
2013-06-11 06:03:00,55.0,-99.9,-100.00,North,-999,-999.0,-999.0,-999,0.05,,,0.28,,2013-06-11 10:03:00,
2013-06-11 06:12:00,55.0,-99.9,-100.00,North,-999,-999.0,-999.0,-999,0.05,,,0.28,,2013-06-11 10:12:00,
2013-06-11 06:23:00,55.0,-99.9,-100.00,North,-999,-999.0,-999.0,-999,0.05,,,0.28,,2013-06-11 10:23:00,
2013-06-11 06:30:00,55.0,-99.9,-100.00,North,-999,-999.0,-999.0,-999,0.04,,,0.32,,2013-06-11 10:30:00,
2013-06-11 07:03:00,55.0,-99.9,-100.00,North,-999,-999.0,-999.0,-999,0.04,,,0.32,,2013-06-11 11:03:00,
2013-06-11 07:12:00,55.0,-99.9,-100.00,North,-999,-999.0,-999.0,-999,0.04,,,0.32,,2013-06-11 11:12:00,
2013-06-11 07:22:00,55.0,-99.9,-100.00,North,-999,-999.0,-999.0,-999,0.04,,,0.32,,2013-06-11 11:22:00,
2013-06-11 07:30:00,55.0,-99.9,-100.00,North,-999,-999.0,-999.0,-999,0.03,,,0.35,,2013-06-11 11:30:00,
2013-06-11 08:02:00,55.0,-99.9,-100.00,North,-999,-999.0,-999.0,-999,0.03,,,0.35,,2013-06-11 12:02:00,
2013-06-11 08:12:00,55.0,-99.9,-100.00,North,-999,-999.0,-999.0,-999,0.03,,,0.35,,2013-06-11 12:12:00,
2013-06-11 08:22:00,55.0,-99.9,-100.00,North,-999,-999.0,-999.0,-999,0.03,,,0.35,,2013-06-11 12:22:00,
2013-06-11 08:30:00,55.0,-99.9,-100.00,North,-999,-999.0,-999.0,-999,0.02,,,0.37,,2013-06-11 12:30:00,
2013-06-11 09:03:00,55.0,-99.9,-100.00,North,-999,-999.0,-999.0,-999,0.02,,,0.37,,2013-06-11 13:03:00,
2013-06-11 09:12:00,55.0,-99.9,-100.00,North,-999,-999.0,-999.0,-999,0.02,,,0.37,,2013-06-11 13:12:00,
2013-06-11 09:22:00,55.0,-99.9,-100.00,North,-999,-999.0,-999.0,-999,0.02,,,0.37,,2013-06-11 13:22:00,
2013-06-11 09:30:00,55.0,-99.9,-100.00,North,-999,-999.0,-999.0,-999,0.01,,,0.38,,2013-06-11 13:30:00,
2013-06-11 10:02:00,55.0,-99.9,-100.00,North,-999,-999.0,-999.0,-999,0.01,,,0.38,,2013-06-11 14:02:00,
2013-06-11 10:12:00,55.0,-99.9,-100.00,North,-999,-999.0,-999.0,-999,0.01,,,0.38,,2013-06-11 14:12:00,
2013-06-11 10:22:00,55.0,-99.9,-100.00,North,-999,-999.0,-999.0,-999,0.01,,,0.38,,2013-06-11 14:22:00,
2013-06-11 10:30:00,55.0,-99.9,-100.00,North,-999,-999.0,-999.0,-999,0.02,,,0.40,,2013-06-11 14:30:00,
2013-06-11 11:02:00,55.0,-99.9,-100.00,North,-999,-999.0,-999.0,-999,0.02,,,0.40,,2013-06-11 15:02:00,
2013-06-11 11:12:00,55.0,-99.9,-100.00,North,-999,-999.0,-999.0,-999,0.02,,,0.40,,2013-06-11 15:12:00,
2013-06-11 11:22:00,55.0,-99.9,-100.00,North,-999,-999.0,-999.0,-999,0.02,,,0.40,,2013-06-11 15:22:00,
2013-06-11 11:30:00,55.0,-99.9,-100.00,North,-999,-999.0,-999.0,-999,0.01,,,0.41,,2013-06-11 15:30:00,
2013-06-11 12:03:00,55.0,-99.9,-100.00,North,-999,-999.0,-999.0,-999,0.01,,,0.41,,2013-06-11 16:03:00,
2013-06-11 12:13:00,55.0,-99.9,-100.00,North,-999,-999.0,-999.0,-999,0.01,,,0.41,,2013-06-11 16:13:00,
2013-06-11 12:23:00,55.0,-99.9,-100.00,North,-999,-999.0,-999.0,-999,0.01,,,0.41,,2013-06-11 16:23:00,
2013-06-11 12:30:00,56.0,-99.9,-100.00,North,-999,-999.0,-999.0,-999,0.01,,,0.42,,2013-06-11 16:30:00,
2013-06-11 13:02:00,56.0,-99.9,-100.00,North,-999,-999.0,-999.0,-999,0.01,,,0.42,,2013-06-11 17:02:00,
2013-06-11 13:12:00,56.0,-99.9,-100.00,North,-999,-999.0,-999.0,-999,0.01,,,0.42,,2013-06-11 17:12:00,
2013-06-11 13:22:00,56.0,-99.9,-100.00,North,-999,-999.0,-999.0,-999,0.01,,,0.42,,2013-06-11 17:22:00,
2013-06-11 13:30:00,57.0,-99.9,-100.00,North,-999,-999.0,-999.0,-999,0.01,,,0.43,,2013-06-11 17:30:00,
2013-06-11 14:02:00,57.0,-99.9,-100.00,North,-999,-999.0,-999.0,-999,0.01,,,0.43,,2013-06-11 18:02:00,
2013-06-11 14:12:00,57.0,-99.9,-100.00,North,-999,-999.0,-999.0,-999,0.01,,,0.43,,2013-06-11 18:12:00,
2013-06-11 14:22:00,57.0,-99.9,-100.00,North,-999,-999.0,-999.0,-999,0.01,,,0.43,,2013-06-11 18:22:00,
2013-06-11 14:30:00,57.0,-99.9,-100.00,North,-999,-999.0,-999.0,-999,0.00,,,0.43,,2013-06-11 18:30:00,
2013-06-11 15:03:00,57.0,-99.9,-100.00,North,-999,-999.0,-999.0,-999,0.00,,,0.43,,2013-06-11 19:03:00,
2013-06-11 15:13:00,57.0,-99.9,-100.00,North,-999,-999.0,-999.0,-999,0.00,,,0.43,,2013-06-11 19:13:00,
2013-06-11 15:22:00,57.0,-99.9,-100.00,North,-999,-999.0,-999.0,-999,0.00,,,0.43,,2013-06-11 19:22:00,
2013-06-11 15:30:00,59.0,-99.9,-100.00,North,-999,-999.0,-999.0,-999,0.01,,,0.44,,2013-06-11 19:30:00,
2013-06-11 16:03:00,59.0,-99.9,-100.00,North,-999,-999.0,-999.0,-999,0.01,,,0.44,,2013-06-11 20:03:00,
2013-06-11 16:12:00,59.0,-99.9,-100.00,North,-999,-999.0,-999.0,-999,0.01,,,0.44,,2013-06-11 20:12:00,
2013-06-11 16:22:00,59.0,-99.9,-100.00,North,-999,-999.0,-999.0,-999,0.01,,,0.44,,2013-06-11 20:22:00,
2013-06-11 16:30:00,59.0,-99.9,-100.00,North,-999,-999.0,-999.0,-999,0.00,,,0.44,,2013-06-11 20:30:00,
2013-06-11 17:02:00,59.0,-99.9,-100.00,North,-999,-999.0,-999.0,-999,0.00,,,0.44,,2013-06-11 21:02:00,
2013-06-11 17:12:00,59.0,-99.9,-100.00,North,-999,-999.0,-999.0,-999,0.00,,,0.44,,2013-06-11 21:12:00,
2013-06-11 17:23:00,59.0,-99.9,-100.00,North,-999,-999.0,-999.0,-999,0.00,,,0.44,,2013-06-11 21:23:00,
2013-06-11 17:30:00,59.0,-99.9,-100.00,North,-999,-999.0,-999.0,-999,0.00,,,0.44,,2013-06-11 21:30:00,
2013-06-11 18:03:00,59.0,-99.9,-100.00,North,-999,-999.0,-999.0,-999,0.00,,,0.44,,2013-06-11 22:03:00,
2013-06-11 18:13:00,59.0,-99.9,-100.00,North,-999,-999.0,-999.0,-999,0.00,,,0.44,,2013-06-11 22:13:00,
2013-06-11 18:23:00,59.0,-99.9,-100.00,North,-999,-999.0,-999.0,-999,0.00,,,0.44,,2013-06-11 22:23:00,
2013-06-11 18:30:00,58.0,-99.9,-100.00,North,-999,-999.0,-999.0,-999,0.00,,,0.44,,2013-06-11 22:30:00,
2013-06-11 19:03:00,58.0,-99.9,-100.00,North,-999,-999.0,-999.0,-999,0.00,,,0.44,,2013-06-11 23:03:00,
2013-06-11 19:12:00,58.0,-99.9,-100.00,North,-999,-999.0,-999.0,-999,0.00,,,0.44,,2013-06-11 23:12:00,
2013-06-11 19:22:00,58.0,-99.9,-100.00,North,-999,-999.0,-999.0,-999,0.00,,,0.44,,2013-06-11 23:22:00,
2013-06-11 19:30:00,57.0,-99.9,-100.00,North,-999,-999.0,-999.0,-999,0.01,,,0.44,,2013-06-11 23:30:00,
2013-06-11 20:02:00,57.0,-99.9,-100.00,North,-999,-999.0,-999.0,-999,0.01,,,0.44,,2013-06-12 00:02:00,
2013-06-11 20:12:00,57.0,-99.9,-100.00,North,-999,-999.0,-999.0,-999,0.01,,,0.44,,2013-06-12 00:12:00,
2013-06-11 20:22:00,57.0,-99.9,-100.00,North,-999,-999.0,-999.0,-999,0.01,,,0.44,,2013-06-12 00:22:00,
2013-06-11 20:30:00,56.0,-99.9,-100.00,North,-999,-999.0,-999.0,-999,0.00,,,0.41,,2013-06-12 00:30:00,
2013-06-11 21:03:00,56.0,-99.9,-100.00,North,-999,-999.0,-999.0,-999,0.00,,,0.41,,2013-06-12 01:03:00,
2013-06-11 21:13:00,56.0,-99.9,-100.00,North,-999,-999.0,-999.0,-999,0.00,,,0.41,,2013-06-12 01:13:00,
2013-06-11 21:22:00,56.0,-99.9,-100.00,North,-999,-999.0,-999.0,-999,0.00,,,0.41,,2013-06-12 01:22:00,
2013-06-11 21:30:00,56.0,-99.9,-100.00,North,-999,-999.0,-999.0,-999,0.01,,,0.41,,2013-06-12 01:30:00,
2013-06-11 22:02:00,56.0,-99.9,-100.00,North,-999,-999.0,-999.0,-999,0.01,,,0.41,,2013-06-12 02:02:00,
2013-06-11 22:12:00,56.0,-99.9,-100.00,North,-999,-999.0,-999.0,-999,0.01,,,0.41,,2013-06-12 02:12:00,
2013-06-11 22:22:00,56.0,-99.9,-100.00,North,-999,-999.0,-999.0,-999,0.01,,,0.41,,2013-06-12 02:22:00,
2013-06-11 22:30:00,56.0,-99.9,-100.00,North,-999,-999.0,-999.0,-999,0.01,,,0.40,,2013-06-12 02:30:00,
2013-06-11 23:02:00,56.0,-99.9,-100.00,North,-999,-999.0,-999.0,-999,0.01,,,0.40,,2013-06-12 03:02:00,
2013-06-11 23:12:00,56.0,-99.9,-100.00,North,-999,-999.0,-999.0,-999,0.01,,,0.40,,2013-06-12 03:12:00,
2013-06-11 23:22:00,56.0,-99.9,-100.00,North,-999,-999.0,-999.0,-999,0.01,,,0.40,,2013-06-12 03:22:00,
2013-06-11 23:30:00,56.0,-99.9,-100.00,North,-999,-999.0,-999.0,-999,0.01,,,0.39,,2013-06-12 03:30:00,